Tracking 21092 objects as of 14-Aug-2020
HD Live streaming from Space Station
objects crossing your sky now
Track the most recent launched group of Starlink satellites

SL-12 R/B(2)

Track SL-12 R/B(2) now!


NORAD ID: 21536
Int'l Code: 1991-046D
Perigee: 35,554.2 km
Apogee: 35,666.4 km
Inclination: 14.5 °
Period: 1,426.7 minutes
Semi major axis: 41981 km
RCS: 2.304 m2 (large)
Launch date: July 1, 1991
Source: Commonwealth of Independent States (former USSR) (CIS)
Launch site: TYURATAM MISSILE AND SPACE COMPLEX (TTMTR)

Note: This is a ROCKET BODY
aabbcc
Your satellite tracking list
Your tracking list is empty




NASA's NSSDC Master Catalog

Two Line Element Set (TLE):
1 21536U 91046D   20226.82763564 -.00000306  00000-0  00000+0 0  9999
2 21536  14.5198 355.6893 0013365 183.2566 202.4904  1.00929669102269
Source of the keplerian elements: AFSPC